EZY63D EGKK-EDDH

Flight info

Callsign EZY63D
Flight time N/A
Altitude 39000
Route FRANE M604 PAAVO Q295 SOMVA DCT MAVAS DCT TULIP Y12 SPY N873 ANDIK M105 RIBSO RIBSO7A
Aircraft A20N/M-SDE2E3FGHIRWXY/LB1

Departure

Time 2026-04-17 08:35
Airport London Gatwick Airport (EGKK)

Arrival

Time N/A
Airport Hamburg Helmut Schmidt Airport (EDDH)
Time Latitude Longitude Altitude Speed Heading
2026-04-17 08:11 51.15572 -0.17761 205 ft 0 kts 347°
2026-04-17 08:25 51.15567 -0.17759 204 ft 4 kts 347°
2026-04-17 08:25 51.15541 -0.17750 204 ft 4 kts 347°
2026-04-17 08:25 51.15515 -0.17741 207 ft 4 kts 12°
2026-04-17 08:25 51.15506 -0.17753 213 ft 3 kts 77°
2026-04-17 08:26 51.15503 -0.17775 213 ft 1 kts 77°
2026-04-17 08:29 51.15505 -0.17761 213 ft 3 kts 77°
2026-04-17 08:29 51.15513 -0.17701 206 ft 8 kts 77°
2026-04-17 08:29 51.15529 -0.17592 204 ft 12 kts 77°
2026-04-17 08:29 51.15532 -0.17447 211 ft 14 kts 127°
2026-04-17 08:30 51.15435 -0.17404 209 ft 16 kts 169°
2026-04-17 08:30 51.15331 -0.17367 206 ft 12 kts 167°
2026-04-17 08:30 51.15259 -0.17127 207 ft 17 kts 78°
2026-04-17 08:31 51.15286 -0.16955 205 ft 16 kts 76°
2026-04-17 08:31 51.15278 -0.16835 207 ft 6 kts 141°
2026-04-17 08:31 51.15277 -0.16834 206 ft 0 kts 144°
2026-04-17 08:33 51.15269 -0.16827 209 ft 5 kts 155°
2026-04-17 08:33 51.15210 -0.16804 210 ft 11 kts 168°
2026-04-17 08:33 51.15129 -0.16826 214 ft 14 kts 225°
2026-04-17 08:34 51.15107 -0.16915 208 ft 0 kts 258°
2026-04-17 08:34 51.15107 -0.16916 208 ft 4 kts 258°
2026-04-17 08:34 51.15044 -0.17361 211 ft 78 kts 257°
2026-04-17 08:35 51.14884 -0.18524 218 ft 135 kts 258°
2026-04-17 08:35 51.14699 -0.20139 573 ft 148 kts 258°
2026-04-17 08:35 51.14559 -0.21762 1251 ft 151 kts 260°
2026-04-17 08:35 51.14403 -0.23410 1861 ft 155 kts 257°
2026-04-17 08:36 51.14175 -0.25139 2538 ft 158 kts 255°
2026-04-17 08:36 51.13890 -0.26844 3217 ft 161 kts 252°
2026-04-17 08:36 51.13762 -0.28649 3910 ft 170 kts 272°
2026-04-17 08:36 51.14304 -0.30379 4664 ft 192 kts 318°
2026-04-17 08:37 51.15639 -0.31016 5576 ft 217 kts
2026-04-17 08:37 51.17013 -0.30010 6739 ft 225 kts 43°
2026-04-17 08:37 51.18071 -0.27866 7264 ft 266 kts 58°
2026-04-17 08:37 51.19115 -0.25109 7325 ft 318 kts 61°
2026-04-17 08:38 51.20215 -0.21777 7241 ft 364 kts 55°
2026-04-17 08:38 51.21913 -0.18671 8160 ft 370 kts 44°
2026-04-17 08:38 51.23701 -0.15946 9257 ft 339 kts 41°
2026-04-17 08:38 51.25389 -0.13435 9876 ft 325 kts 41°
2026-04-17 08:39 51.26997 -0.11004 10737 ft 326 kts 42°
2026-04-17 08:39 51.28687 -0.08396 11145 ft 351 kts 43°
2026-04-17 08:39 51.30469 -0.05589 11765 ft 365 kts 44°
2026-04-17 08:39 51.32278 -0.02705 12651 ft 370 kts 44°
2026-04-17 08:40 51.34076 0.00177 13503 ft 376 kts 44°
2026-04-17 08:40 51.35941 0.03171 14323 ft 382 kts 45°
2026-04-17 08:40 51.37821 0.06192 15133 ft 386 kts 44°
2026-04-17 08:40 51.39729 0.09262 15918 ft 391 kts 44°
2026-04-17 08:41 51.41009 0.11322 16432 ft 394 kts 44°
2026-04-17 08:41 51.43611 0.15514 17460 ft 400 kts 44°
2026-04-17 08:41 51.45584 0.18696 18227 ft 405 kts 44°
2026-04-17 08:41 51.47571 0.21906 18889 ft 410 kts 44°
2026-04-17 08:42 51.49593 0.25177 19528 ft 415 kts 44°
2026-04-17 08:42 51.51641 0.28495 20160 ft 420 kts 44°
2026-04-17 08:42 51.53707 0.31846 20792 ft 425 kts 44°
2026-04-17 08:42 51.55800 0.35246 21390 ft 430 kts 44°
2026-04-17 08:43 51.57912 0.38681 22013 ft 435 kts 44°
2026-04-17 08:43 51.60017 0.42109 22621 ft 440 kts 44°
2026-04-17 08:43 51.62157 0.45600 23212 ft 445 kts 44°
2026-04-17 08:43 51.64342 0.49168 23821 ft 449 kts 44°
2026-04-17 08:44 51.66547 0.52776 24331 ft 453 kts 44°
2026-04-17 08:44 51.68764 0.56408 24854 ft 456 kts 44°
2026-04-17 08:44 51.70993 0.60066 25389 ft 459 kts 44°
2026-04-17 08:44 51.73241 0.63760 25870 ft 463 kts 44°
2026-04-17 08:45 51.75501 0.67480 26374 ft 466 kts 44°
2026-04-17 08:45 51.77777 0.71231 26860 ft 469 kts 44°
2026-04-17 08:45 51.80066 0.75009 27328 ft 472 kts 44°
2026-04-17 08:45 51.82368 0.78816 27779 ft 475 kts 44°
2026-04-17 08:46 51.84616 0.82763 28224 ft 480 kts 50°
2026-04-17 08:46 51.86542 0.87212 28635 ft 484 kts 59°
2026-04-17 08:46 51.88070 0.92074 29051 ft 487 kts 68°
2026-04-17 08:46 51.89331 0.97052 29424 ft 490 kts 68°
2026-04-17 08:47 51.90623 1.02090 29813 ft 493 kts 67°
2026-04-17 08:47 51.91950 1.07252 30201 ft 496 kts 67°
2026-04-17 08:47 51.93275 1.12422 30539 ft 499 kts 67°
2026-04-17 08:47 51.94602 1.17617 30903 ft 501 kts 67°
2026-04-17 08:48 51.95936 1.22864 31255 ft 503 kts 67°
2026-04-17 08:48 51.97268 1.28120 31679 ft 503 kts 67°
2026-04-17 08:48 51.98594 1.33362 32146 ft 502 kts 67°
2026-04-17 08:48 51.99919 1.38616 32620 ft 501 kts 67°
2026-04-17 08:49 52.01218 1.43783 33061 ft 501 kts 67°
2026-04-17 08:49 52.02548 1.49080 33510 ft 500 kts 67°
2026-04-17 08:49 52.03838 1.54232 33948 ft 499 kts 66°
2026-04-17 08:49 52.05138 1.59437 34348 ft 498 kts 66°
2026-04-17 08:50 52.06440 1.64657 34723 ft 496 kts 66°
2026-04-17 08:50 52.07731 1.69851 35090 ft 495 kts 66°
2026-04-17 08:50 52.09019 1.75041 35450 ft 494 kts 66°
2026-04-17 08:50 52.10300 1.80215 35792 ft 493 kts 66°
2026-04-17 08:51 52.11557 1.85305 36110 ft 492 kts 66°
2026-04-17 08:51 52.12831 1.90473 36443 ft 491 kts 66°
2026-04-17 08:51 52.14098 1.95628 36755 ft 491 kts 66°
2026-04-17 08:51 52.15364 2.00788 37082 ft 490 kts 66°
2026-04-17 08:52 52.16624 2.05939 37390 ft 489 kts 66°
2026-04-17 08:52 52.17877 2.11071 37679 ft 488 kts 66°
2026-04-17 08:52 52.19129 2.16214 37957 ft 487 kts 66°
2026-04-17 08:52 52.20377 2.21348 38236 ft 487 kts 66°
2026-04-17 08:53 52.21620 2.26476 38510 ft 486 kts 66°
2026-04-17 08:53 52.22859 2.31598 38766 ft 485 kts 66°
2026-04-17 08:53 52.24095 2.36724 38993 ft 484 kts 66°
2026-04-17 08:53 52.25326 2.41838 39146 ft 484 kts 66°
2026-04-17 08:54 52.26553 2.46947 39195 ft 483 kts 66°
2026-04-17 08:54 52.28979 2.57086 39202 ft 482 kts 66°
2026-04-17 08:55 52.31256 2.67411 39203 ft 484 kts 72°
2026-04-17 08:55 52.33080 2.77878 39205 ft 484 kts 72°
2026-04-17 08:56 52.34951 2.88444 39206 ft 483 kts 72°
2026-04-17 08:56 52.36800 2.99004 39208 ft 483 kts 72°
2026-04-17 08:57 52.38576 3.09569 39208 ft 483 kts 76°
2026-04-17 08:57 52.39448 3.20499 39209 ft 484 kts 87°
2026-04-17 08:58 52.39205 3.31516 39211 ft 484 kts 94°
2026-04-17 08:58 52.38739 3.42502 39213 ft 483 kts 94°
2026-04-17 08:59 52.38264 3.53471 39217 ft 483 kts 94°
2026-04-17 08:59 52.38018 3.58951 39215 ft 483 kts 94°